Location: Brodeslavy
(49.9527°N, 13.5567°E)
Time: 03:49:12
(UTC+00:00)

CZ-4C R/B - Pass Details

Date: 17 June 2025
Orbit: 425 x 535 km, 98.0° (Epoch: 12 July)

Event Time Altitude Azimuth Distance (km) Brightness Sun altitude
Rises 21:28:42 0° 19° (NNE) 2,403 7.4 -13.5°
Reaches altitude 10° 21:30:47 10° 26° (NNE) 1,529 6.2 -13.6°
Maximum altitude 21:33:55 44° 101° (E) 600 3.3 -13.8°
Enters shadow 21:35:14 28° 156° (SSE) 843 3.7 -13.9°
